Regional Weather Roundup
Issued by NWS Kansas City/Pleasant Hill, MO

Home | Current Version | Previous Version | Text Only | Print | Product List | Glossary On
Versions: 1 2 3 4 5 6 7 8 9 10 11 12 13 14 15 16 17 18 19 20 21 22 23 24 25 26 27 28
000
ASUS43 KEAX 051710
RWREAX

WEATHER ROUNDUP FOR EASTERN KANSAS AND NORTHWEST MISSOURI
NATIONAL WEATHER SERVICE KANSAS CITY/PLEASANT HILL MO
1100 AM CST MON DEC 05 2016

KSZ040-057-103>105-MOZ028-029-037-043-051800-
...KANSAS CITY METROPOLITAN AREA...

CITY           SKY/WX    TMP DP  RH WIND       PRES   REMARKS
K.C. INTL      SUNNY     47  37  68 S15G26    29.85F
K.C. DOWNTOWN  SUNNY     44  39  82 S13       29.89S
LEES SUMMIT    MOSUNNY   44  41  89 S13       29.89F
OLATHE - IXD   PTSUNNY   41  40  96 S15G21    29.88S FOG     WCI  33
OLATHE - OJC   PTSUNNY   42  39  89 S18       29.87F WCI  34
LAWRENCE       MOSUNNY   42  39  89 SE15      29.86F WCI  34

$$

MOZ001>008-011>017-020>025-030>033-038>040-044>046-053-054-051800-
...NORTHERN AND CENTRAL MISSOURI...

CITY           SKY/WX    TMP DP  RH WIND       PRES   REMARKS
ST. JOSEPH     SUNNY     46  40  79 S12       29.84F
MOSBY          MOSUNNY   41  41 100 S12G18    29.90S WCI  34
WARRENSBURG    SUNNY     41  37  87 SE9       29.91F
WHITEMAN AFB   MOSUNNY   45  44  98 S14       29.90F
CLINTON        NOT AVBL
SEDALIA        SUNNY     46  39  76 S10       29.94F
WARSAW         NOT AVBL
CHILLICOTHE      N/A     41  39  93 S10       29.92F WCI  35
KIRKSVILLE     FOG       35  35 100 SE7       29.95  VSB 1/2 WCI  29

$$

MOZ041-047>049-056>058-063>065-088>090-097-051800-
...EASTERN AND SOUTHERN MISSOURI...

CITY           SKY/WX    TMP DP  RH WIND       PRES   REMARKS
ST. LOUIS INTL CLOUDY    42  35  76 E10       30.02F
SPIRIT OF STL  CLOUDY    39  37  92 SE6       30.02F WCI  35
COLUMBIA       CLOUDY    38  38 100 SE7       29.96F FOG     WCI  33
JEFFERSON CITY CLOUDY    35  35 100 E8        29.97F FOG     WCI  29
ROLLA          CLOUDY    38  37  97 SE8       29.96F WCI  32
OSAGE BEACH    PTSUNNY   39  36  89 SE8       29.97F WCI  33
SPRINGFIELD    CLOUDY    39  36  89 SE15      29.94S WCI  31
BRANSON        CLOUDY    37  37 100 SE9G21    29.97S WCI  31
JOPLIN         SUNNY     44  37  76 SE9       29.93S
WEST PLAINS    MOSUNNY   42  36  79 SE12      29.99F

$$

IAZ060-094-KSZ022-034>040-054-083-096-NEZ052-066-093-051800-
...KANSAS...SOUTHEAST NEBRASKA AND IOWA...

CITY           SKY/WX    TMP DP  RH WIND       PRES   REMARKS
TOPEKA         SUNNY     46  38  73 S15G21    29.83F
MANHATTAN      SUNNY     49  32  52 S16G29    29.77F
EMPORIA        PTSUNNY   39  37  92 S18G24    29.82F WCI  30
CHANUTE        MOSUNNY   44  41  89 S12       29.87F
WICHITA        MOSUNNY   47  39  74 S20G29    29.78F
OMAHA          PTSUNNY   43  33  68 S17       29.73F
LINCOLN        SUNNY     42  33  70 S18       29.70F WCI  34
FALLS CITY     SUNNY     46  37  71 S17       29.78F
LAMONI         CLOUDY    36  35  96 S12G21    29.85F WCI  28
DES MOINES     MOSUNNY   44  37  76 S17       29.84F

$$





USA.gov is the U.S. government's official web portal to all federal, state and local government web resources and services.